Regional Weather Roundup
Issued by NWS Wakefield, VA

Home | Current Version | Previous Version | Graphics & Text | Print | Product List | Glossary On
Versions: 1 2 3 4 5 6 7 8 9 10 11 12 13 14 15 16 17 18 19 20 21 22 23 24 25 26 27 28 29 30 31 32 33 34 35 36 37 38 39 40 41 42 43 44 45 46 47 48 49 50
000
ASUS41 KAKQ 220710
RWRAKQ

REGIONAL WEATHER ROUNDUP
NATIONAL WEATHER SERVICE WAKEFIELD VA
200 AM EST MON DEC 22 2014

Note: "fair" indicates few or no clouds below 12,000 feet with no
significant weather and/or obstructions to visibility. * = Denotes
station may not report precipitation (e.g., rain,snow,etc.),
thunder or fog.

VAZ042-051-052>054-056-220800-
NORTHERN VIRGINIA

CITY           SKY/WX    TMP DP  RH WIND       PRES   REMARKS
WASH NATIONAL  MOCLDY    33  24  69 NE6       30.34F
DULLES         PTCLDY    26  22  84 N5        30.32S
FORT BELVOIR   MOCLDY    27  24  87 W1        30.33F
QUANTICO       CLOUDY    31  26  82 NW5       30.34S
FREDERICKSBRG* CLOUDY    32  30  91 CALM      30.31R
STAFFORD*      CLOUDY    29  29 100 CALM      30.36R
WARRENTON      CLOUDY    28  28 100 CALM      30.31R
CULPEPER*      CLOUDY    28  27  93 CALM      30.32R
MANASSAS*      MOCLDY    25  25 100 N3        30.32S
LEESBURG*      PTCLDY    28  27  93 N3        30.33S
WINCHESTER     CLEAR     28  21  74 NE3       30.28F
FRONT ROYAL*   CLOUDY    28  23  80 CALM      30.27F
LURAY*         CLOUDY    30  30 100 CALM      30.26S
$$

VAZ048-049-060>072-079>083-220800-
CENTRAL AND SOUTH CENTRAL VIRGINIA

CITY           SKY/WX    TMP DP  RH WIND       PRES   REMARKS
RICHMOND       CLOUDY    36  28  73 NE7       30.28F
CHESTERFIELD*  CLOUDY    37  19  48 NE3       30.28F
PETERSBURG*    CLOUDY    37  32  83 NE3       30.28F
HANOVER        CLOUDY    33  28  81 CALM      30.30F
TAPPAHANNOCK*  CLOUDY    33  28  83 CALM      30.31R
QUINTON*       CLOUDY    34  29  82 NE5       30.29S
CHARLOTTSVILLE CLOUDY    33  27  78 CALM      30.28F
GORDONSVILLE*  CLOUDY    31  28  89 CALM      30.29S
ORANGE*        CLOUDY    32  30  93 CALM      30.31S
LOUISA*        CLOUDY    32  28  86 CALM      30.27S
BUMPASS*       CLOUDY    32  28  82 CALM      30.28F
FARMVILLE*     CLOUDY    39  30  71 CALM      30.26S
CREWE*         CLOUDY    35  29  81 CALM      30.26S
FORT PICKETT*  CLOUDY    35  30  82 NE5       30.25F
CHASE CITY*    CLOUDY    37  32  81 CALM      30.24F
CLARKSVILLE*   CLOUDY    36  30  80 NE5       30.23F
SOUTH HILL*    CLOUDY    35  30  82 N5        30.30S
LAWRENCEVILLE* CLOUDY    36  31  82 NE5       30.24F
EMPORIA*       CLOUDY    36  32  87 NE3       30.26F
$$

VAZ088>098-220800-
SOUTHEAST VIRGINIA

CITY           SKY/WX    TMP DP  RH WIND       PRES   REMARKS
NORFOLK        CLOUDY    42  34  73 NE15      30.25F
VIRGINIA BEACH CLOUDY    44  36  73 NE13      30.25F
NORFOLK NAVAL  CLOUDY    44  34  67 NE16      30.27F
WEST POINT*    CLOUDY    38  30  73 N5        30.31S
SALUDA*        CLOUDY    37  30  78 NE5       30.29F
NEWPORT NEWS   CLOUDY    40  33  76 N6        30.28S
LANGLEY AFB    CLOUDY    39  32  75 NE13      30.28S
FORT EUSTIS    CLOUDY    38  32  77 NE5       30.26F
WILLIAMSBURG*  CLOUDY    39  36  87 CALM      30.29S
HR EXEC AP*    CLOUDY    39  34  81 NE5       30.28S
FRANKLIN*      CLOUDY    36  32  87 N7        30.25F
WAKEFIELD      CLOUDY    37  31  78 NE3       30.27F
$$

VAZ020-022-025-037-045-220800-
WEST CENTRAL AND SOUTHWEST VIRGINIA

CITY           SKY/WX    TMP DP  RH WIND       PRES   REMARKS
STAUNTON*      CLOUDY    32  26  78 CALM      30.25F
WAYNESBORO*    CLOUDY    33  26  73 E3        30.22F
HOT SPRINGS VA CLOUDY    28  28 100 SE7       30.09F FOG
LYNCHBURG      CLOUDY    36  28  73 N7        30.25F
DANVILLE       CLOUDY    39  30  70 NE9       30.22F
SOUTH BOSTON*  CLOUDY    36  31  83 NE3       30.24F
MARTINSVILLE   CLOUDY    40  32  72 N5        30.24S
ROANOKE        CLOUDY    38  28  67 SE7       30.24F
BLACKSBURG     CLOUDY    35  30  82 E7        30.21S
DUBLIN*        CLOUDY    38  33  84 SE5       30.19R
MARION*        CLOUDY    38  35  89 E9        30.16R
HILLSVILLE*    CLOUDY    34  32  92 SE3       30.15S
RICHLANDS*     PTSUNNY   37  32  81 SE12      30.08S
WISE*          PTCLDY    36  32  87 S3        30.08S
ABINGDON*      MOCLDY    40  35  82 E9        30.09S
$$

MDZ021>025-VAZ099-100-220800-
SOUTHERN MARYLAND AND THE DELMARVA PENINSULA

CITY           SKY/WX    TMP DP  RH WIND       PRES   REMARKS
PATUXENT RIVER CLOUDY    33  28  81 CALM      30.32S
BAY BRIDGE APT   N/A     30  27  86 CALM      30.33S
LEONARDTOWN    CLOUDY    30  28  93 CALM      30.32S
DOVER          PTCLDY    26  25  96 NW3       30.31R
GEORGETOWN     MOCLDY    30  25  81 CALM      30.32R
EASTON         MOCLDY    29  26  88 NE3       30.36S
CAMBRIDGE      CLOUDY    32  27  80 N5        30.31S
SALISBURY      CLOUDY    32  25  75 CALM      30.31S
OCEAN CITY     MOCLDY    28  25  88 N5        30.31R FOG
WALLOPS ISLAND CLOUDY    32  26  78 N5        30.31F
ACCOMACK*      CLOUDY    32  28  86 NE6       30.29F
$$

NCZ012>017-030>032-220800-
NORTH CENTRAL AND EASTERN NORTH CAROLINA

CITY           SKY/WX    TMP DP  RH WIND       PRES   REMARKS
ROANOKE RAPIDS CLOUDY    36  32  87 NE6       30.23F
RALEIGH        DRIZZLE   38  33  82 NE10      30.19F
ELIZABETH CITY CLOUDY    48  39  71 NE15      30.21F
AHOSKIE*       LGT RAIN  37  33  82 NE9       30.23F
EDENTON*       CLOUDY    42  37  82 NE7       30.21S
CURRITUCK*     CLOUDY    45  38  77 NE12G17   30.23S
KILL DEVIL HLS CLOUDY    48  44  85 NE10G18   30.18F
MANTEO         CLOUDY    48  44  85 NE17      30.19S
CAPE HATTERAS  LGT RAIN  49  49 100 NE12      30.15F FOG
TARBORO*       NOT AVBL
GOLDSBORO      LGT RAIN  40  39  98 N9        30.15S
WASHINGTON     CLOUDY    42  37  84 NE9       30.18S
GREENVILLE     DRIZZLE   39  37  93 NE7       30.19F
NEW BERN       CLOUDY    46  41  82 NE10      30.15F
WILMINGTON     LGT RAIN  45  44  97 E9        30.08F FOG
$$

VAZ048-220800-
ELSEWHERE

CITY           SKY/WX    TMP DP  RH WIND       PRES   REMARKS
HARRISBURG PA  PTCLDY    22  19  89 N3        30.33R
BALTIMORE      PTCLDY    26  21  81 CALM      30.33R
ANNAPOLIS      MOCLDY    30  27  88 CALM      30.33S FOG
ANDREWS AFB    PTCLDY    27  23  85 NE3       30.31F
PHILADELPHIA   PTCLDY    28  21  75 NW6       30.35R
HENDERSON NC   CLOUDY    37  29  71 NE7       30.22F
GREENSBORO     CLOUDY    39  32  76 NE9       30.19S
ROCKY MOUNT    LGT RAIN  39  34  82 N12       30.21S
$$

VAZ100-220800-
MARINE

STATION/POSITION TIME  TEMP    WIND        PRES    WAVE   SWELL
                       AIR SEA DIR/SP/G            HT/PER HT/PER
                 (UTC) (F)     (DEG/KT/KT) (MB)    (FT/S) (FT/S)
CAPE MAY NJ      0700   32 43   60/  5/  7 1026.1R
LEWES DE         0700   37 42   50/ 10/ 11 1026.4R
15NM E FENWICK I 0700   40 45              1026.1R   1/11
OCEAN-CITY-INLET 0700   34 42  360/  5/  5 1025.8F
WACHAPREAGUE VA  0700   35 40   10/  4/  6 1025.9S
THOMAS POINT MD  0700   34 40   50/  7/  8 1028.0F
GOOSES REEF MD   0700   35     VRB 10/ 12  1025.5F
COVE POINT MD    0700   33      70/ 10/ 11 1026.2S
SOLOMONS ISLAND  0700      42                N/A
BISHOPS HEAD MD  0700   34 38   40/  5/  9 1025.9R
POTOMAC MD       0700   38      80/ 10/ 12 1025.3R
CAMBRIDGE MD     0700   33 40   60/  3/  5 1026.5S
LEWISETTA VA     0700   38 41   70/  8/ 11 1025.9S
RAPPAHANNOCK LGT 0700           40/ 11/ 12 1026.2R
STINGRAY PT      0700   40      70/ 10/ 10 1026.0S
YORK RVR RNG VA  0700   41      60/ 12/ 14 1024.7R
YORKTOWN VA      0700   40 45   40/  8/  9 1025.3R
JAMESTOWN VA     0700   37      70/  4/  4   N/A
DOMINION TERM VA 0700   40      40/  5/  8 1024.8F
KIPTOPEKE VA     0700      49   50/  5/  7   N/A
CHES BAY BRIDGE  0700   41 45   20/ 13/ 16 1024.1F
CAPE HENRY VA    0700   43      40/ 17/ 19 1023.2F
CHESAPEAKE LGHT  0600   44      50/ 16/ 18 1025.1F
WILLOUBY STN VA  0700   41      30/ 15/ 16 1025.2S
S CRANEY ISL VA  0700           40/ 12/ 14 1024.4S
CAPE HENRY BUOY  0700      49                N/A     3/ 4
1ST LANDING BUOY 0700   41      30/ 16/ 17 1024.3S
CAPE CHARLES BUO 0700      46                N/A     2/ 4   2/10
64NM E OF VA BCH 0700   50 54   40/ 19/ 21 1022.7F   3/ 4   2/10
DUCK PIER NC     0700   48 46   40/ 19/ 21 1021.9F
44100 DUCK FRF   0700      51                N/A     4/ 5
44056 DUCK FRF   0700      46                N/A     4/ 5
OREGON INLET NC  0700   49 47   20/ 12/ 16 1021.8F
HATTERAS NC      0700   48 49   30/ 11/ 15 1021.0F
DIAMOND SHLS NC  0700   62                 1020.0F
CAPE LOOKOUT NC  0600   47      10/ 14/ 18 1020.2F
$$



USA.gov is the U.S. government's official web portal to all federal, state and local government web resources and services.